Regional Weather Roundup
Issued by NWS

Home | Current Version | Previous Version | Graphics & Text | Print | Product List | Glossary On
Versions: 1 2 3 4 5 6 7 8 9 10 11 12 13 14 15 16 17 18 19 20 21 22 23 24 25 26 27
000
ASUS45 KCYS 271510
RWRWY

WYOMING REGIONAL WEATHER ROUNDUP
NATIONAL WEATHER SERVICE CHEYENNE WY
900 AM MDT TUE SEP 27 2016

NOTE:  "FAIR" INDICATES FEW OR NO CLOUDS BELOW 12,000 FEET
WITH NO SIGNIFICANT WEATHER AND/OR OBSTRUCTIONS TO VISIBILITY.

WYZ001-271600-
YELLOWSTONE NATIONAL PARK

CITY           SKY/WX    TMP DP  RH WIND       PRES   REMARKS
LK YELLOWSTONE   N/A     39  37  92 CALM      30.42F
W YELLOWSTONE  NOT AVBL

$$
WYZ002>013-054>058-071-098>099-271600-
NORTHERN WYOMING

CITY           SKY/WX    TMP DP  RH WIND       PRES   REMARKS
JACKSON        SUNNY     39  37  93 CALM      30.39S
CODY           FAIR      56  46  69 CALM      30.21S
GREYBULL       FAIR      48  45  89 S3        30.18S
WORLAND        FAIR      51  47  86 SW3       30.19R
SHERIDAN       FAIR      60  48  64 CALM      30.12R
BUFFALO        FAIR      68  37  32 CALM      30.18R
GILLETTE       FAIR      60  45  57 CALM      30.14R
HULETT         FAIR      59  46  63 SW7       30.13S
NEWCASTLE      FAIR      54  43  66 CALM      30.16S

$$
WYZ014>020-022>026-101>103-271600-
CENTRAL WYOMING

CITY           SKY/WX    TMP DP  RH WIND       PRES   REMARKS
BIG PINEY      FAIR      44  38  79 CALM      30.38S
PINEDALE       FAIR      43  36  75 NW9       30.39S
DUBOIS         FAIR      50  36  57 NW14      30.34S
LANDER         FAIR      53  40  61 CALM      30.25S
RIVERTON       FAIR      53  45  74 CALM      30.26S
CASPER         FAIR      57  44  62 SW13      30.24R
DOUGLAS        FAIR      50  44  80 CALM      30.22R

$$
WYZ021-027>030-104>119-271600-
SOUTHERN WYOMING

CITY           SKY/WX    TMP DP  RH WIND       PRES   REMARKS
EVANSTON       FAIR      50  36  58 CALM      30.37R
FORT BRIDGER   FAIR      50  39  65 CALM      30.40R
ROCK SPRINGS   FAIR      46  41  82 CALM      30.36R
DIXON          FAIR      48  36  61 E8        30.40R
RAWLINS        FAIR      47  37  68 CALM      30.36S
SARATOGA       FAIR      50  34  53 SE13      30.38F
LARAMIE        FAIR      46  37  71 S3        30.36R
CHEYENNE       FAIR      62  40  44 W8        30.27R
TORRINGTON     FAIR      50  43  77 NW5       30.17F
PINE BLUFFS    FAIR      55  41  58 SW5       30.23S

$$




USA.gov is the U.S. government's official web portal to all federal, state and local government web resources and services.